| time (UTC) | temp C | wind direction | speed KPH | gust KPH | rain 1hr cm | rain 24hr cm | rain mn cm | humidity % | barometer mb |
| 20260906154805 | 22 | 110 | 9.7 | 19.3 | 0.00 | 0.00 | 0.00 | 98 | 1019.2 |
| 20260906153804 | 22 | 122 | 11.3 | 19.3 | 0.00 | 0.00 | 0.00 | 98 | 1019.1 |
| 20260906152805 | 22 | 117 | 4.8 | 12.9 | 0.00 | 0.00 | 0.00 | 98 | 1019.0 |
| 20260906152307 | 22 | 66 | 11.3 | 16.1 | 0.00 | 0.00 | 0.00 | 98 | 1018.9 |
| 20260906151805 | 22 | 126 | 9.7 | 16.1 | 0.00 | 0.00 | 0.00 | 97 | 1018.9 |
| 20260906151305 | 22 | 92 | 12.9 | 16.1 | 0.00 | 0.00 | 0.00 | 98 | 1018.9 |
| 20260906150804 | 22 | 101 | 9.7 | 12.9 | 0.00 | 0.00 | 0.00 | 98 | 1019.0 |
| 20260906150304 | 22 | 115 | 9.7 | 22.5 | 0.00 | 0.00 | 0.00 | 98 | 1018.9 |
| 20260906145805 | 22 | 116 | 8.0 | 22.5 | 0.00 | 0.00 | 0.00 | 98 | 1018.8 |
| 20260906145306 | 22 | 111 | 11.3 | 22.5 | 0.00 | 0.00 | 0.00 | 100 | 1018.8 |
| 20260906144805 | 22 | 101 | 8.0 | 12.9 | 0.00 | 0.00 | 0.00 | 100 | 1018.8 |
| 20260906144305 | 22 | 116 | 9.7 | 19.3 | 0.00 | 0.00 | 0.00 | 100 | 1018.8 |
| 20260906143804 | 21 | 116 | 12.9 | 19.3 | 0.00 | 0.00 | 0.00 | 100 | 1018.8 |
| 20260906143305 | 21 | 118 | 4.8 | 11.3 | 0.00 | 0.00 | 0.00 | 100 | 1018.9 |
| 20260906142805 | 21 | 88 | 8.0 | 11.3 | 0.00 | 0.00 | 0.00 | 100 | 1018.9 |
| 20260906142307 | 21 | 89 | 9.7 | 19.3 | 0.00 | 0.00 | 0.00 | 100 | 1018.8 |
| 20260906141805 | 21 | 104 | 9.7 | 19.3 | 0.00 | 0.00 | 0.00 | 100 | 1018.8 |
| 20260906141305 | 21 | 75 | 11.3 | 19.3 | 0.00 | 0.00 | 0.00 | 100 | 1018.7 |
| 20260906140304 | 21 | 129 | 6.4 | 19.3 | 0.00 | 0.00 | 0.00 | 100 | 1018.6 |
| 20260906135804 | 21 | 78 | 16.1 | 19.3 | 0.00 | 0.00 | 0.00 | 100 | 1018.6 |
| 20260906135306 | 21 | 90 | 14.5 | 19.3 | 0.00 | 0.00 | 0.00 | 100 | 1018.6 |
| 20260906134805 | 21 | 105 | 9.7 | 19.3 | 0.00 | 0.00 | 0.00 | 100 | 1018.6 |
| 20260906134305 | 21 | 100 | 11.3 | 19.3 | 0.00 | 0.00 | 0.00 | 100 | 1018.6 |
| 20260906133305 | 21 | 91 | 11.3 | 16.1 | 0.00 | 0.00 | 0.00 | 100 | 1018.6 |
| 20260906132805 | 21 | 76 | 14.5 | 16.1 | 0.00 | 0.00 | 0.00 | 100 | 1018.5 |
| 20260906132307 | 20 | 61 | 11.3 | 16.1 | 0.00 | 0.00 | 0.00 | 100 | 1018.6 |
| 20260906131805 | 20 | 110 | 11.3 | 19.3 | 0.00 | 0.00 | 0.00 | 100 | 1018.5 |
| 20260906130304 | 20 | 126 | 9.7 | 12.9 | 0.00 | 0.00 | 0.00 | 100 | 1018.4 |
| 20260906125804 | 20 | 112 | 11.3 | 16.1 | 0.00 | 0.00 | 0.00 | 100 | 1018.3 |
| 20260906125306 | 20 | 110 | 9.7 | 16.1 | 0.00 | 0.00 | 0.00 | 100 | 1018.2 |
| 20260906124805 | 20 | 85 | 6.4 | 12.9 | 0.00 | 0.00 | 0.00 | 100 | 1018.2 |
| 20260906124305 | 20 | 126 | 4.8 | 12.9 | 0.00 | 0.00 | 0.00 | 100 | 1018.1 |
| 20260906123805 | 20 | 102 | 9.7 | 12.9 | 0.00 | 0.00 | 0.00 | 100 | 1018.1 |
| 20260906123305 | 20 | 95 | 3.2 | 12.9 | 0.00 | 0.00 | 0.00 | 100 | 1018.1 |
| 20260906122805 | 20 | 94 | 6.4 | 12.9 | 0.00 | 0.00 | 0.00 | 100 | 1018.1 |
| 20260906122306 | 20 | 133 | 4.8 | 12.9 | 0.00 | 0.00 | 0.00 | 100 | 1018.0 |
| 20260906121804 | 20 | 31 | 11.3 | 12.9 | 0.00 | 0.00 | 0.00 | 100 | 1018.1 |
| 20260906121304 | 20 | 72 | 4.8 | 12.9 | 0.00 | 0.00 | 0.00 | 100 | 1018.0 |
| 20260906120805 | 20 | 88 | 6.4 | 12.9 | 0.00 | 0.00 | 0.00 | 100 | 1018.0 |
| 20260906115805 | 20 | 66 | 6.4 | 11.3 | 0.00 | 0.00 | 0.00 | 100 | 1018.0 |
| 20260906114804 | 20 | 95 | 1.6 | 11.3 | 0.00 | 0.00 | 0.00 | 100 | 1017.9 |
| 20260906114305 | 20 | 91 | 3.2 | 11.3 | 0.00 | 0.00 | 0.00 | 100 | 1017.9 |
| 20260906113305 | 20 | 62 | 3.2 | 11.3 | 0.00 | 0.00 | 0.00 | 100 | 1017.7 |
| 20260906112804 | 20 | 133 | 3.2 | 11.3 | 0.00 | 0.00 | 0.00 | 100 | 1017.6 |
| 20260906111805 | 20 | 88 | 9.7 | 16.1 | 0.00 | 0.00 | 0.00 | 100 | 1017.6 |
| 20260906110804 | 20 | 98 | 3.2 | 11.3 | 0.00 | 0.00 | 0.00 | 100 | 1017.6 |
| 20260906110305 | 20 | 112 | 9.7 | 11.3 | 0.00 | 0.00 | 0.00 | 100 | 1017.7 |
| 20260906105805 | 20 | 98 | 4.8 | 8.0 | 0.00 | 0.00 | 0.00 | 100 | 1017.6 |
| 20260906105306 | 20 | 96 | 3.2 | 11.3 | 0.00 | 0.00 | 0.00 | 100 | 1017.5 |
| 20260906104805 | 20 | 90 | 3.2 | 11.3 | 0.00 | 0.00 | 0.00 | 100 | 1017.5 |
| 20260906104304 | 20 | 94 | 4.8 | 12.9 | 0.00 | 0.00 | 0.00 | 100 | 1017.5 |
| 20260906103304 | 20 | 91 | 9.7 | 12.9 | 0.00 | 0.00 | 0.00 | 100 | 1017.4 |
| 20260906102805 | 20 | 108 | 6.4 | 11.3 | 0.00 | 0.00 | 0.00 | 100 | 1017.2 |
| 20260906102306 | 20 | 133 | 6.4 | 16.1 | 0.00 | 0.00 | 0.00 | 100 | 1017.2 |
| 20260906101305 | 20 | 91 | 9.7 | 12.9 | 0.00 | 0.00 | 0.00 | 100 | 1016.9 |
| 20260906100804 | 20 | 66 | 9.7 | 11.3 | 0.00 | 0.00 | 0.00 | 100 | 1016.8 |
| 20260906100304 | 20 | 118 | 8.0 | 11.3 | 0.00 | 0.00 | 0.00 | 100 | 1016.9 |
| 20260906095804 | 20 | 117 | 3.2 | 11.3 | 0.00 | 0.00 | 0.00 | 100 | 1016.9 |
| 20260906095306 | 20 | 118 | 3.2 | 12.9 | 0.00 | 0.00 | 0.00 | 100 | 1016.9 |
| 20260906094305 | 21 | 88 | 1.6 | 11.3 | 0.00 | 0.00 | 0.00 | 100 | 1016.6 |
| 20260906093805 | 21 | 99 | 11.3 | 11.3 | 0.00 | 0.00 | 0.00 | 100 | 1016.5 |
| 20260906093305 | 21 | 62 | 6.4 | 11.3 | 0.00 | 0.00 | 0.00 | 100 | 1016.5 |
| 20260906092805 | 21 | 94 | 6.4 | 11.3 | 0.00 | 0.00 | 0.00 | 100 | 1016.5 |
| 20260906092306 | 21 | 137 | 4.8 | 11.3 | 0.00 | 0.00 | 0.00 | 100 | 1016.4 |
| 20260906091305 | 21 | 109 | 9.7 | 19.3 | 0.00 | 0.00 | 0.00 | 100 | 1016.5 |
| 20260906090805 | 21 | 86 | 11.3 | 12.9 | 0.00 | 0.00 | 0.00 | 100 | 1016.3 |
| 20260906090305 | 21 | 75 | 11.3 | 16.1 | 0.00 | 0.00 | 0.00 | 100 | 1016.4 |
| 20260906085306 | 21 | 94 | 14.5 | 16.1 | 0.00 | 0.00 | 0.00 | 100 | 1016.2 |
| 20260906084805 | 21 | 82 | 9.7 | 19.3 | 0.00 | 0.00 | 0.00 | 100 | 1016.3 |
| 20260906084305 | 21 | 102 | 12.9 | 19.3 | 0.00 | 0.00 | 0.00 | 100 | 1016.2 |
| 20260906083804 | 21 | 116 | 11.3 | 16.1 | 0.00 | 0.00 | 0.00 | 100 | 1016.2 |
| 20260906082805 | 22 | 91 | 11.3 | 19.3 | 0.00 | 0.00 | 0.00 | 100 | 1016.3 |
| 20260906082306 | 22 | 126 | 11.3 | 16.1 | 0.00 | 0.00 | 0.00 | 100 | 1016.3 |
| 20260906081805 | 22 | 86 | 8.0 | 12.9 | 0.00 | 0.00 | 0.00 | 100 | 1016.4 |
| 20260906081305 | 22 | 115 | 9.7 | 12.9 | 0.00 | 0.00 | 0.00 | 100 | 1016.4 |
| 20260906080805 | 22 | 160 | 4.8 | 11.3 | 0.00 | 0.00 | 0.00 | 100 | 1016.4 |
| 20260906080306 | 22 | 103 | 3.2 | 11.3 | 0.00 | 0.00 | 0.00 | 100 | 1016.5 |
| 20260906075306 | 22 | 53 | 8.0 | 16.1 | 0.00 | 0.00 | 0.00 | 100 | 1016.5 |
| 20260906074805 | 22 | 94 | 9.7 | 16.1 | 0.00 | 0.00 | 0.00 | 100 | 1016.5 |
| 20260906074304 | 22 | 83 | 9.7 | 19.3 | 0.00 | 0.00 | 0.00 | 100 | 1016.5 |
| 20260906072306 | 22 | 66 | 8.0 | 16.1 | 0.00 | 0.00 | 0.00 | 100 | 1016.7 |
| 20260906071304 | 22 | 119 | 12.9 | 19.3 | 0.00 | 0.00 | 0.00 | 100 | 1016.6 |
| 20260906070804 | 22 | 94 | 8.0 | 12.9 | 0.00 | 0.00 | 0.00 | 100 | 1016.8 |
| 20260906070304 | 22 | 98 | 4.8 | 11.3 | 0.00 | 0.00 | 0.00 | 100 | 1016.9 |
| 20260906065805 | 22 | 75 | 4.8 | 11.3 | 0.00 | 0.00 | 0.00 | 100 | 1016.9 |
| 20260906065306 | 22 | 99 | 6.4 | 11.3 | 0.00 | 0.00 | 0.00 | 99 | 1017.0 |
| 20260906064804 | 22 | 78 | 4.8 | 16.1 | 0.00 | 0.00 | 0.00 | 98 | 1016.9 |
| 20260906064305 | 22 | 43 | 4.8 | 16.1 | 0.00 | 0.00 | 0.00 | 98 | 1016.9 |
| 20260906063805 | 22 | 53 | 11.3 | 16.1 | 0.00 | 0.00 | 0.00 | 98 | 1016.9 |
| 20260906063305 | 23 | 54 | 6.4 | 16.1 | 0.00 | 0.00 | 0.00 | 98 | 1016.7 |
| 20260906062805 | 23 | 76 | 9.7 | 16.1 | 0.00 | 0.00 | 0.00 | 98 | 1016.8 |
| 20260906062306 | 23 | 72 | 9.7 | 12.9 | 0.00 | 0.00 | 0.00 | 96 | 1016.8 |
| 20260906061804 | 23 | 83 | 4.8 | 8.0 | 0.00 | 0.00 | 0.00 | 96 | 1016.8 |
| 20260906061305 | 23 | 136 | 6.4 | 8.0 | 0.00 | 0.00 | 0.00 | 96 | 1016.8 |
| 20260906060804 | 23 | 79 | 4.8 | 8.0 | 0.00 | 0.00 | 0.00 | 95 | 1016.7 |
| 20260906060305 | 23 | 75 | 4.8 | 8.0 | 0.00 | 0.00 | 0.00 | 94 | 1016.6 |
| 20260906055805 | 23 | 117 | 6.4 | 8.0 | 0.00 | 0.00 | 0.00 | 94 | 1016.7 |
| 20260906055306 | 23 | 83 | 4.8 | 8.0 | 0.00 | 0.00 | 0.00 | 94 | 1016.6 |
| 20260906054305 | 23 | 69 | 4.8 | 11.3 | 0.00 | 0.00 | 0.00 | 94 | 1016.4 |
| 20260906053805 | 23 | 86 | 8.0 | 11.3 | 0.00 | 0.00 | 0.00 | 94 | 1016.6 |
| 20260906053304 | 23 | 93 | 8.0 | 8.0 | 0.00 | 0.00 | 0.00 | 94 | 1016.7 |
| 20260906052804 | 23 | 85 | 4.8 | 16.1 | 0.00 | 0.00 | 0.00 | 94 | 1016.6 |
| 20260906052306 | 23 | 79 | 6.4 | 16.1 | 0.00 | 0.00 | 0.00 | 94 | 1016.6 |
| 20260906051305 | 23 | 56 | 6.4 | 8.0 | 0.00 | 0.00 | 0.00 | 93 | 1016.5 |
| 20260906050818 | 23 | 74 | 3.2 | 8.0 | 0.00 | 0.00 | 0.00 | 94 | 1016.3 |
| 20260906050304 | 23 | 83 | 6.4 | 8.0 | 0.00 | 0.00 | 0.00 | 92 | 1016.3 |
| 20260906045804 | 23 | 97 | 6.4 | 11.3 | 0.00 | 0.00 | 0.00 | 92 | 1016.4 |
| 20260906045306 | 23 | 79 | 8.0 | 11.3 | 0.00 | 0.00 | 0.00 | 92 | 1016.4 |
| 20260906044804 | 23 | 89 | 8.0 | 8.0 | 0.00 | 0.00 | 0.00 | 92 | 1016.4 |
| 20260906044305 | 23 | 118 | 4.8 | 11.3 | 0.00 | 0.00 | 0.00 | 92 | 1016.3 |
| 20260906043805 | 23 | 94 | 6.4 | 11.3 | 0.00 | 0.00 | 0.00 | 92 | 1016.3 |
| 20260906043305 | 23 | 80 | 3.2 | 8.0 | 0.00 | 0.00 | 0.00 | 92 | 1016.3 |
| 20260906042804 | 23 | 110 | 4.8 | 11.3 | 0.00 | 0.00 | 0.00 | 92 | 1016.3 |
| 20260906042306 | 23 | 90 | 4.8 | 11.3 | 0.00 | 0.00 | 0.00 | 90 | 1016.3 |
| 20260906041805 | 24 | 18 | 4.8 | 11.3 | 0.00 | 0.00 | 0.00 | 91 | 1016.3 |
| 20260906041304 | 24 | 109 | 4.8 | 11.3 | 0.00 | 0.00 | 0.00 | 90 | 1016.2 |
| 20260906040805 | 24 | 105 | 4.8 | 8.0 | 0.00 | 0.00 | 0.00 | 90 | 1016.2 |
| 20260906035805 | 24 | 80 | 4.8 | 8.0 | 0.00 | 0.00 | 0.00 | 90 | 1016.3 |
| 20260906034804 | 24 | 87 | 8.0 | 19.3 | 0.00 | 0.00 | 0.00 | 90 | 1016.2 |
| 20260906034304 | 24 | 57 | 9.7 | 19.3 | 0.00 | 0.00 | 0.00 | 90 | 1016.2 |
| 20260906033804 | 24 | 61 | 6.4 | 19.3 | 0.00 | 0.00 | 0.00 | 90 | 1016.1 |
| 20260906032804 | 24 | 68 | 4.8 | 16.1 | 0.00 | 0.00 | 0.00 | 90 | 1015.9 |
| 20260906032306 | 24 | 68 | 8.0 | 16.1 | 0.00 | 0.00 | 0.00 | 90 | 1015.8 |
| 20260906031804 | 24 | 99 | 6.4 | 12.9 | 0.00 | 0.00 | 0.00 | 90 | 1015.8 |
| 20260906030804 | 24 | 89 | 8.0 | 16.1 | 0.00 | 0.00 | 0.00 | 91 | 1015.7 |
| 20260906030305 | 24 | 82 | 9.7 | 16.1 | 0.00 | 0.00 | 0.00 | 92 | 1015.8 |
| 20260906025804 | 24 | 79 | 6.4 | 12.9 | 0.00 | 0.00 | 0.00 | 92 | 1015.8 |
| 20260906025306 | 24 | 95 | 9.7 | 22.5 | 0.00 | 0.00 | 0.00 | 92 | 1015.8 |
| 20260906024304 | 25 | 83 | 11.3 | 12.9 | 0.00 | 0.00 | 0.00 | 91 | 1015.6 |
| 20260906023305 | 25 | 73 | 6.4 | 16.1 | 0.00 | 0.00 | 0.00 | 90 | 1015.3 |
| 20260906022804 | 25 | 90 | 11.3 | 16.1 | 0.00 | 0.00 | 0.00 | 90 | 1015.3 |
| 20260906022307 | 25 | 93 | 9.7 | 12.9 | 0.00 | 0.00 | 0.00 | 90 | 1015.4 |
| 20260906021805 | 25 | 111 | 8.0 | 11.3 | 0.00 | 0.00 | 0.00 | 89 | 1015.3 |
| 20260906021304 | 25 | 72 | 4.8 | 16.1 | 0.00 | 0.00 | 0.00 | 88 | 1015.2 |
| 20260906020805 | 25 | 79 | 8.0 | 16.1 | 0.00 | 0.00 | 0.00 | 88 | 1015.1 |
| 20260906020305 | 25 | 96 | 11.3 | 12.9 | 0.00 | 0.00 | 0.00 | 88 | 1014.9 |
| 20260906015306 | 25 | 117 | 9.7 | 19.3 | 0.00 | 0.00 | 0.00 | 88 | 1014.7 |
| 20260906014304 | 25 | 66 | 11.3 | 22.5 | 0.00 | 0.00 | 0.00 | 88 | 1014.7 |
| 20260906013805 | 25 | 77 | 8.0 | 12.9 | 0.00 | 0.00 | 0.00 | 88 | 1014.6 |
| 20260906013305 | 25 | 116 | 4.8 | 12.9 | 0.00 | 0.00 | 0.00 | 88 | 1014.6 |
| 20260906012805 | 25 | 85 | 8.0 | 11.3 | 0.00 | 0.00 | 0.00 | 87 | 1014.6 |
| 20260906011804 | 26 | 71 | 8.0 | 16.1 | 0.00 | 0.00 | 0.00 | 85 | 1014.5 |
| 20260906011305 | 26 | 91 | 8.0 | 16.1 | 0.00 | 0.00 | 0.00 | 85 | 1014.3 |
| 20260906010805 | 26 | 91 | 3.2 | 11.3 | 0.00 | 0.00 | 0.00 | 84 | 1014.3 |
| 20260906010305 | 26 | 114 | 3.2 | 11.3 | 0.00 | 0.00 | 0.00 | 84 | 1014.3 |
| 20260906005805 | 26 | 101 | 4.8 | 11.3 | 0.00 | 0.00 | 0.00 | 84 | 1014.3 |
| 20260906005306 | 26 | 106 | 6.4 | 8.0 | 0.00 | 0.00 | 0.00 | 83 | 1014.3 |
| 20260906004805 | 26 | 91 | 1.6 | 11.3 | 0.00 | 0.00 | 0.00 | 83 | 1014.3 |
| 20260906004305 | 26 | 92 | 4.8 | 11.3 | 0.00 | 0.00 | 0.00 | 83 | 1014.3 |
| 20260906003805 | 26 | 30 | 3.2 | 11.3 | 0.00 | 0.00 | 0.00 | 82 | 1014.3 |
| 20260906001805 | 26 | 96 | 3.2 | 22.5 | 0.00 | 0.00 | 0.00 | 82 | 1014.1 |
| 20260906001304 | 26 | 95 | 11.3 | 22.5 | 0.00 | 0.00 | 0.00 | 81 | 1014.0 |
| 20260906000805 | 26 | 77 | 11.3 | 19.3 | 0.00 | 0.00 | 0.00 | 81 | 1014.1 |
| 20260906000305 | 27 | 117 | 14.5 | 19.3 | 0.00 | 0.00 | 0.00 | 81 | 1014.1 |
| 20260905235804 | 27 | 119 | 4.8 | 16.1 | 0.00 | 0.00 | 0.00 | 81 | 1014.1 |
| 20260905234304 | 27 | 63 | 14.5 | 22.5 | 0.00 | 0.00 | 0.00 | 80 | 1014.0 |
| 20260905233804 | 27 | 88 | 12.9 | 22.5 | 0.00 | 0.00 | 0.00 | 80 | 1014.0 |
| 20260905233305 | 27 | 48 | 14.5 | 19.3 | 0.00 | 0.00 | 0.00 | 80 | 1013.9 |
| 20260905232805 | 28 | 63 | 11.3 | 19.3 | 0.00 | 0.00 | 0.00 | 80 | 1013.9 |
| 20260905232306 | 28 | 93 | 14.5 | 22.5 | 0.00 | 0.00 | 0.00 | 80 | 1013.6 |
| 20260905231804 | 28 | 93 | 16.1 | 22.5 | 0.00 | 0.00 | 0.00 | 80 | 1013.7 |
| 20260905231304 | 28 | 92 | 16.1 | 19.3 | 0.00 | 0.00 | 0.00 | 80 | 1013.6 |
| 20260905230305 | 29 | 64 | 12.9 | 19.3 | 0.00 | 0.00 | 0.00 | 79 | 1013.6 |
| 20260905225805 | 29 | 62 | 16.1 | 19.3 | 0.00 | 0.00 | 0.00 | 78 | 1013.6 |
| 20260905225306 | 29 | 36 | 17.7 | 22.5 | 0.00 | 0.00 | 0.00 | 78 | 1013.5 |
| 20260905224804 | 29 | 69 | 14.5 | 22.5 | 0.00 | 0.00 | 0.00 | 78 | 1013.4 |
| 20260905223804 | 30 | 55 | 19.3 | 22.5 | 0.00 | 0.00 | 0.00 | 76 | 1013.4 |
| 20260905223304 | 30 | 40 | 20.9 | 22.5 | 0.00 | 0.00 | 0.00 | 76 | 1013.4 |
| 20260905222804 | 30 | 88 | 12.9 | 22.5 | 0.00 | 0.00 | 0.00 | 76 | 1013.4 |
| 20260905222306 | 30 | 71 | 14.5 | 19.3 | 0.00 | 0.00 | 0.00 | 75 | 1013.3 |
| 20260905221805 | 31 | 78 | 11.3 | 24.1 | 0.00 | 0.00 | 0.00 | 74 | 1013.2 |
| 20260905220804 | 31 | 48 | 12.9 | 24.1 | 0.00 | 0.00 | 0.00 | 73 | 1013.1 |
| 20260905220305 | 31 | 70 | 19.3 | 22.5 | 0.00 | 0.00 | 0.00 | 72 | 1013.1 |
| 20260905214805 | 31 | 95 | 19.3 | 27.4 | 0.00 | 0.00 | 0.00 | 70 | 1013.1 |
| 20260905213804 | 31 | 19 | 16.1 | 22.5 | 0.00 | 0.00 | 0.00 | 70 | 1013.3 |
| 20260905213304 | 31 | 32 | 16.1 | 22.5 | 0.00 | 0.00 | 0.00 | 71 | 1013.3 |
| 20260905212804 | 31 | 30 | 16.1 | 22.5 | 0.00 | 0.00 | 0.00 | 71 | 1013.3 |
| 20260905211804 | 32 | 40 | 19.3 | 27.4 | 0.00 | 0.00 | 0.00 | 70 | 1013.3 |
| 20260905211304 | 32 | 23 | 16.1 | 19.3 | 0.00 | 0.00 | 0.00 | 69 | 1013.2 |
| 20260905210304 | 32 | 24 | 19.3 | 19.3 | 0.00 | 0.00 | 0.00 | 68 | 1013.4 |
| 20260905205306 | 32 | 15 | 9.7 | 19.3 | 0.00 | 0.00 | 0.00 | 69 | 1013.4 |
| 20260905204804 | 32 | 42 | 6.4 | 19.3 | 0.00 | 0.00 | 0.00 | 70 | 1013.3 |
| 20260905204304 | 32 | 0 | 8.0 | 19.3 | 0.00 | 0.00 | 0.00 | 69 | 1013.3 |
| 20260905203305 | 32 | 30 | 16.1 | 16.1 | 0.00 | 0.00 | 0.00 | 69 | 1013.5 |
| 20260905202804 | 33 | 353 | 9.7 | 12.9 | 0.00 | 0.00 | 0.00 | 70 | 1013.7 |
| 20260905202306 | 32 | 35 | 3.2 | 16.1 | 0.00 | 0.00 | 0.00 | 71 | 1013.8 |
| 20260905201804 | 32 | 354 | 12.9 | 16.1 | 0.00 | 0.00 | 0.00 | 69 | 1013.9 |
| 20260905201304 | 32 | 25 | 11.3 | 16.1 | 0.00 | 0.00 | 0.00 | 71 | 1013.7 |
| 20260905200804 | 32 | 28 | 14.5 | 22.5 | 0.00 | 0.00 | 0.00 | 71 | 1013.5 |
| 20260905200305 | 32 | 9 | 16.1 | 22.5 | 0.00 | 0.00 | 0.00 | 71 | 1013.6 |
| 20260905195804 | 32 | 32 | 16.1 | 22.5 | 0.00 | 0.00 | 0.00 | 72 | 1013.6 |
| 20260905195306 | 31 | 358 | 14.5 | 19.3 | 0.00 | 0.00 | 0.00 | 73 | 1013.7 |
| 20260905194805 | 32 | 19 | 16.1 | 22.5 | 0.00 | 0.00 | 0.00 | 72 | 1013.9 |
| 20260905194305 | 32 | 60 | 16.1 | 22.5 | 0.00 | 0.00 | 0.00 | 70 | 1013.9 |
| 20260905193804 | 32 | 11 | 11.3 | 22.5 | 0.00 | 0.00 | 0.00 | 72 | 1013.9 |
| 20260905193304 | 32 | 350 | 14.5 | 22.5 | 0.00 | 0.00 | 0.00 | 71 | 1014.0 |
| 20260905192804 | 32 | 350 | 19.3 | 22.5 | 0.00 | 0.00 | 0.00 | 72 | 1014.2 |
| 20260905192306 | 32 | 24 | 11.3 | 19.3 | 0.00 | 0.00 | 0.00 | 72 | 1014.3 |
| 20260905191804 | 32 | 358 | 6.4 | 19.3 | 0.00 | 0.00 | 0.00 | 72 | 1014.4 |
| 20260905191304 | 32 | 38 | 16.1 | 19.3 | 0.00 | 0.00 | 0.00 | 72 | 1014.3 |
| 20260905190804 | 32 | 14 | 11.3 | 19.3 | 0.00 | 0.00 | 0.00 | 72 | 1014.3 |
| 20260905190304 | 32 | 17 | 8.0 | 19.3 | 0.00 | 0.00 | 0.00 | 72 | 1014.3 |
| 20260905185804 | 32 | 129 | 11.3 | 12.9 | 0.00 | 0.00 | 0.00 | 72 | 1014.4 |
| 20260905185306 | 32 | 59 | 12.9 | 16.1 | 0.00 | 0.00 | 0.00 | 72 | 1014.3 |
| 20260905184804 | 31 | 72 | 8.0 | 16.1 | 0.00 | 0.00 | 0.00 | 73 | 1014.4 |
| 20260905184304 | 31 | 85 | 4.8 | 12.9 | 0.00 | 0.00 | 0.00 | 73 | 1014.5 |
| 20260905183304 | 31 | 82 | 4.8 | 16.1 | 0.00 | 0.00 | 0.00 | 73 | 1014.6 |
| 20260905182804 | 32 | 68 | 9.7 | 12.9 | 0.00 | 0.00 | 0.00 | 72 | 1014.6 |
| 20260905182306 | 31 | 92 | 8.0 | 12.9 | 0.00 | 0.00 | 0.00 | 73 | 1014.5 |
| 20260905181804 | 31 | 66 | 3.2 | 12.9 | 0.00 | 0.00 | 0.00 | 73 | 1014.4 |
| 20260905181304 | 31 | 19 | 11.3 | 12.9 | 0.00 | 0.00 | 0.00 | 72 | 1014.4 |
| 20260905180804 | 31 | 84 | 8.0 | 12.9 | 0.00 | 0.00 | 0.00 | 74 | 1014.5 |
| 20260905175804 | 31 | 94 | 11.3 | 12.9 | 0.00 | 0.00 | 0.00 | 74 | 1014.5 |
| 20260905175306 | 31 | 87 | 8.0 | 12.9 | 0.00 | 0.00 | 0.00 | 75 | 1014.6 |
| 20260905174804 | 31 | 66 | 4.8 | 12.9 | 0.00 | 0.00 | 0.00 | 75 | 1014.4 |
| 20260905174304 | 31 | 121 | 8.0 | 12.9 | 0.00 | 0.00 | 0.00 | 74 | 1014.4 |
| 20260905173804 | 31 | 128 | 11.3 | 12.9 | 0.00 | 0.00 | 0.00 | 74 | 1014.3 |
| 20260905173304 | 31 | 74 | 12.9 | 12.9 | 0.00 | 0.00 | 0.00 | 74 | 1014.3 |
| 20260905172804 | 31 | 96 | 9.7 | 16.1 | 0.00 | 0.00 | 0.00 | 74 | 1014.3 |
| 20260905172305 | 31 | 71 | 11.3 | 16.1 | 0.00 | 0.00 | 0.00 | 74 | 1014.3 |
| 20260905171804 | 31 | 47 | 8.0 | 11.3 | 0.00 | 0.00 | 0.00 | 74 | 1014.3 |
| 20260905171305 | 31 | 146 | 4.8 | 12.9 | 0.00 | 0.00 | 0.00 | 75 | 1014.4 |
| 20260905170804 | 31 | 78 | 9.7 | 19.3 | 0.00 | 0.00 | 0.00 | 74 | 1014.5 |
| 20260905170304 | 31 | 77 | 9.7 | 19.3 | 0.00 | 0.00 | 0.00 | 74 | 1014.5 |
| 20260905165306 | 30 | 85 | 8.0 | 19.3 | 0.00 | 0.00 | 0.00 | 75 | 1014.6 |
| 20260905164804 | 30 | 130 | 8.0 | 19.3 | 0.00 | 0.00 | 0.00 | 75 | 1014.6 |
| 20260905163805 | 30 | 33 | 16.1 | 19.3 | 0.00 | 0.00 | 0.00 | 73 | 1014.6 |
| 20260905162804 | 31 | 37 | 12.9 | 16.1 | 0.00 | 0.00 | 0.00 | 74 | 1014.6 |
| 20260905162306 | 30 | 82 | 11.3 | 12.9 | 0.00 | 0.00 | 0.00 | 75 | 1014.7 |
| 20260905161804 | 30 | 126 | 9.7 | 16.1 | 0.00 | 0.00 | 0.00 | 75 | 1014.7 |
| 20260905160804 | 30 | 26 | 12.9 | 16.1 | 0.00 | 0.00 | 0.00 | 76 | 1014.6 |
| 20260905160304 | 30 | 17 | 12.9 | 12.9 | 0.00 | 0.00 | 0.00 | 77 | 1014.6 |
| 20260905155804 | 30 | 60 | 8.0 | 16.1 | 0.00 | 0.00 | 0.00 | 77 | 1014.6 |